SAEC03 SAZB-SUMU

Flight info

Callsign SAEC03
Flight time 1h 8m
Altitude 35000
Route DOTRI2G DOTRI UW32 MDP UM792 DARKA
Aircraft A20N/M-SDE2E3FGHIRWXY/LB1

Departure

Time 2026-05-04 14:23
Airport Comandante Espora Airport (SAZB)

Arrival

Time 2026-05-04 15:31
Airport Carrasco General Cesáreo L. Berisso International Airport (SUMU)
Time Latitude Longitude Altitude Speed Heading
2026-05-04 14:12 -38.73196 -62.15496 237 ft 0 kts 254°
2026-05-04 14:18 -38.73205 -62.15504 240 ft 1 kts 196°
2026-05-04 14:19 -38.73215 -62.15495 239 ft 1 kts 122°
2026-05-04 14:19 -38.73218 -62.15487 237 ft 0 kts 118°
2026-05-04 14:19 -38.73224 -62.15473 237 ft 0 kts 118°
2026-05-04 14:20 -38.73224 -62.15466 235 ft 2 kts 101°
2026-05-04 14:20 -38.73230 -62.15425 237 ft 7 kts 101°
2026-05-04 14:20 -38.73262 -62.15402 234 ft 7 kts 158°
2026-05-04 14:21 -38.73409 -62.15339 236 ft 15 kts 163°
2026-05-04 14:21 -38.73522 -62.15298 231 ft 19 kts 164°
2026-05-04 14:21 -38.73652 -62.15252 229 ft 21 kts 164°
2026-05-04 14:21 -38.73751 -62.15168 230 ft 19 kts 102°
2026-05-04 14:22 -38.73739 -62.15020 229 ft 17 kts 57°
2026-05-04 14:22 -38.73672 -62.14997 229 ft 0 kts 342°
2026-05-04 14:22 -38.73579 -62.15033 230 ft 47 kts 344°
2026-05-04 14:23 -38.72079 -62.15586 327 ft 158 kts 341°
2026-05-04 14:23 -38.71019 -62.15934 987 ft 165 kts 341°
2026-05-04 14:23 -38.69839 -62.16303 1572 ft 183 kts 341°
2026-05-04 14:24 -38.68515 -62.16450 2312 ft 202 kts 360°
2026-05-04 14:24 -38.67146 -62.15874 3105 ft 217 kts 25°
2026-05-04 14:24 -38.65956 -62.14619 3923 ft 226 kts 44°
2026-05-04 14:24 -38.64816 -62.13166 4491 ft 237 kts 22°
2026-05-04 14:25 -38.63235 -62.12759 4947 ft 234 kts 340°
2026-05-04 14:25 -38.60166 -62.11535 6830 ft 266 kts 51°
2026-05-04 14:25 -38.59208 -62.09421 7461 ft 286 kts 57°
2026-05-04 14:26 -38.58210 -62.07093 7906 ft 310 kts 58°
2026-05-04 14:26 -38.57157 -62.04602 8569 ft 323 kts 58°
2026-05-04 14:26 -38.56141 -62.01999 9383 ft 333 kts 66°
2026-05-04 14:26 -38.55608 -61.99089 9746 ft 339 kts 85°
2026-05-04 14:27 -38.55566 -61.96078 9870 ft 340 kts 90°
2026-05-04 14:27 -38.55555 -61.93051 9888 ft 340 kts 90°
2026-05-04 14:27 -38.55534 -61.90043 9895 ft 356 kts 90°
2026-05-04 14:27 -38.55500 -61.86729 9889 ft 384 kts 89°
2026-05-04 14:28 -38.55456 -61.83310 9890 ft 383 kts 89°
2026-05-04 14:28 -38.55408 -61.79975 9888 ft 367 kts 89°
2026-05-04 14:28 -38.55361 -61.76791 9887 ft 350 kts 89°
2026-05-04 14:28 -38.55315 -61.73750 9887 ft 335 kts 89°
2026-05-04 14:29 -38.55220 -61.67378 9892 ft 385 kts 89°
2026-05-04 14:29 -38.55114 -61.60667 9885 ft 362 kts 89°
2026-05-04 14:30 -38.55063 -61.57518 9888 ft 346 kts 89°
2026-05-04 14:30 -38.55014 -61.54541 9886 ft 337 kts 89°
2026-05-04 14:30 -38.54907 -61.48059 9888 ft 386 kts 89°
2026-05-04 14:31 -38.54849 -61.44646 9882 ft 379 kts 89°
2026-05-04 14:31 -38.54734 -61.38215 9883 ft 345 kts 89°
2026-05-04 14:32 -38.54623 -61.32093 9886 ft 367 kts 89°
2026-05-04 14:32 -38.54561 -61.28729 9886 ft 386 kts 89°
2026-05-04 14:32 -38.54497 -61.25309 9879 ft 380 kts 89°
2026-05-04 14:32 -38.54433 -61.22015 9883 ft 363 kts 89°
2026-05-04 14:33 -38.54372 -61.18862 9879 ft 346 kts 89°
2026-05-04 14:33 -38.54332 -61.16863 9880 ft 335 kts 89°
2026-05-04 14:33 -38.54273 -61.13871 9885 ft 347 kts 89°
2026-05-04 14:33 -38.54209 -61.10626 9890 ft 380 kts 89°
2026-05-04 14:34 -38.54138 -61.07188 10475 ft 390 kts 89°
2026-05-04 14:34 -38.54065 -61.03716 11416 ft 391 kts 89°
2026-05-04 14:34 -38.53893 -61.00228 12224 ft 397 kts 81°
2026-05-04 14:34 -38.53359 -60.96746 13029 ft 401 kts 77°
2026-05-04 14:35 -38.52779 -60.93235 13813 ft 407 kts 77°
2026-05-04 14:35 -38.52197 -60.89682 14526 ft 411 kts 77°
2026-05-04 14:35 -38.51610 -60.86087 15223 ft 416 kts 77°
2026-05-04 14:35 -38.51015 -60.82442 15924 ft 421 kts 77°
2026-05-04 14:36 -38.50413 -60.78761 16612 ft 426 kts 77°
2026-05-04 14:36 -38.49804 -60.75043 17295 ft 431 kts 77°
2026-05-04 14:36 -38.49184 -60.71269 17965 ft 436 kts 77°
2026-05-04 14:36 -38.48558 -60.67472 18559 ft 441 kts 77°
2026-05-04 14:37 -38.47930 -60.63668 19119 ft 445 kts 77°
2026-05-04 14:37 -38.47286 -60.59781 19675 ft 450 kts 77°
2026-05-04 14:37 -38.46634 -60.55844 20260 ft 455 kts 77°
2026-05-04 14:37 -38.45972 -60.51860 20833 ft 459 kts 77°
2026-05-04 14:38 -38.45305 -60.47853 21385 ft 464 kts 77°
2026-05-04 14:38 -38.44630 -60.43807 21934 ft 469 kts 77°
2026-05-04 14:38 -38.43946 -60.39717 22482 ft 473 kts 77°
2026-05-04 14:38 -38.43254 -60.35586 23027 ft 478 kts 78°
2026-05-04 14:39 -38.42554 -60.31424 23549 ft 482 kts 78°
2026-05-04 14:39 -38.41857 -60.27282 23993 ft 486 kts 78°
2026-05-04 14:39 -38.41142 -60.23048 24451 ft 490 kts 78°
2026-05-04 14:40 -38.39690 -60.14486 25321 ft 498 kts 78°
2026-05-04 14:40 -38.38952 -60.10146 25742 ft 502 kts 78°
2026-05-04 14:40 -38.38208 -60.05782 26162 ft 506 kts 78°
2026-05-04 14:40 -38.37457 -60.01387 26577 ft 509 kts 78°
2026-05-04 14:41 -38.36698 -59.96954 26971 ft 513 kts 78°
2026-05-04 14:41 -38.35933 -59.92502 27369 ft 516 kts 78°
2026-05-04 14:41 -38.34383 -59.83501 28122 ft 523 kts 78°
2026-05-04 14:42 -38.32803 -59.74376 28838 ft 529 kts 78°
2026-05-04 14:42 -38.32007 -59.69795 29182 ft 532 kts 78°
2026-05-04 14:42 -38.31203 -59.65173 29513 ft 535 kts 78°
2026-05-04 14:43 -38.30392 -59.60536 29857 ft 538 kts 78°
2026-05-04 14:43 -38.29574 -59.55872 30160 ft 541 kts 78°
2026-05-04 14:43 -38.28760 -59.51239 30454 ft 544 kts 78°
2026-05-04 14:43 -38.27932 -59.46528 30748 ft 547 kts 78°
2026-05-04 14:44 -38.27098 -59.41796 31066 ft 549 kts 78°
2026-05-04 14:44 -38.26260 -59.37057 31427 ft 549 kts 78°
2026-05-04 14:44 -38.25419 -59.32315 31799 ft 549 kts 78°
2026-05-04 14:44 -38.24578 -59.27580 32170 ft 549 kts 78°
2026-05-04 14:45 -38.23733 -59.22841 32544 ft 549 kts 78°
2026-05-04 14:45 -38.22887 -59.18103 32908 ft 549 kts 78°
2026-05-04 14:45 -38.22036 -59.13353 33268 ft 549 kts 78°
2026-05-04 14:45 -38.21186 -59.08617 33611 ft 549 kts 78°
2026-05-04 14:46 -38.20333 -59.03879 33946 ft 549 kts 78°
2026-05-04 14:46 -38.19480 -58.99148 34240 ft 549 kts 78°
2026-05-04 14:46 -38.18625 -58.94419 34532 ft 549 kts 78°
2026-05-04 14:46 -38.17767 -58.89690 34774 ft 549 kts 78°
2026-05-04 14:47 -38.16052 -58.80260 34863 ft 546 kts 78°
2026-05-04 14:47 -38.14335 -58.70870 34863 ft 546 kts 78°
2026-05-04 14:48 -38.12620 -58.61537 34865 ft 545 kts 78°
2026-05-04 14:48 -38.10890 -58.52164 34852 ft 545 kts 78°
2026-05-04 14:49 -38.09154 -58.42802 34856 ft 544 kts 78°
2026-05-04 14:49 -38.07413 -58.33461 34867 ft 543 kts 78°
2026-05-04 14:50 -38.05667 -58.24136 34862 ft 543 kts 78°
2026-05-04 14:50 -38.03916 -58.14824 34853 ft 542 kts 78°
2026-05-04 14:51 -38.02158 -58.05518 34859 ft 541 kts 78°
2026-05-04 14:51 -38.00397 -57.96240 34856 ft 541 kts 77°
2026-05-04 14:52 -37.98631 -57.86978 34858 ft 540 kts 77°
2026-05-04 14:52 -37.96859 -57.77733 34857 ft 539 kts 77°
2026-05-04 14:53 -37.95083 -57.68502 34861 ft 539 kts 77°
2026-05-04 14:53 -37.93974 -57.64033 34852 ft 539 kts 66°
2026-05-04 14:53 -37.92244 -57.59842 34860 ft 536 kts 53°
2026-05-04 14:54 -37.89933 -57.56109 34858 ft 529 kts 40°
2026-05-04 14:54 -37.87239 -57.53106 34857 ft 519 kts 28°
2026-05-04 14:54 -37.84179 -57.50803 34860 ft 506 kts 16°
2026-05-04 14:54 -37.80927 -57.49318 34852 ft 491 kts
2026-05-04 14:55 -37.74296 -57.47231 34858 ft 494 kts
2026-05-04 14:55 -37.67744 -57.44326 34864 ft 501 kts 13°
2026-05-04 14:56 -37.61270 -57.40978 34870 ft 503 kts 14°
2026-05-04 14:56 -37.54802 -57.37568 34881 ft 504 kts 14°
2026-05-04 14:57 -37.48322 -57.34170 34889 ft 504 kts 14°
2026-05-04 14:57 -37.41882 -57.30808 34894 ft 504 kts 14°
2026-05-04 14:58 -37.35393 -57.27428 34898 ft 504 kts 14°
2026-05-04 14:58 -37.28912 -57.24058 34906 ft 505 kts 14°
2026-05-04 14:59 -37.22416 -57.20687 34909 ft 505 kts 14°
2026-05-04 15:00 -37.12666 -57.15640 34917 ft 506 kts 14°
2026-05-04 15:00 -37.06158 -57.12277 34922 ft 506 kts 14°
2026-05-04 15:01 -36.96369 -57.07233 34934 ft 507 kts 14°
2026-05-04 15:01 -36.89844 -57.03878 34937 ft 508 kts 14°
2026-05-04 15:02 -36.83350 -57.00545 34942 ft 507 kts 14°
2026-05-04 15:02 -36.76802 -56.97191 34932 ft 510 kts 14°
2026-05-04 15:03 -36.73526 -56.95515 34711 ft 508 kts 14°
2026-05-04 15:03 -36.70258 -56.93864 34473 ft 505 kts 14°
2026-05-04 15:03 -36.66993 -56.92236 34246 ft 504 kts 14°
2026-05-04 15:03 -36.63732 -56.90615 34000 ft 504 kts 14°
2026-05-04 15:04 -36.60480 -56.88998 33731 ft 503 kts 14°
2026-05-04 15:04 -36.57227 -56.87379 33458 ft 503 kts 14°
2026-05-04 15:04 -36.53980 -56.85764 33189 ft 503 kts 14°
2026-05-04 15:04 -36.50763 -56.84163 32926 ft 503 kts 14°
2026-05-04 15:05 -36.47521 -56.82552 32625 ft 503 kts 14°
2026-05-04 15:05 -36.44260 -56.80933 32008 ft 504 kts 14°
2026-05-04 15:05 -36.41004 -56.79319 31240 ft 505 kts 14°
2026-05-04 15:05 -36.37747 -56.77703 30680 ft 500 kts 15°
2026-05-04 15:06 -36.34528 -56.76105 30145 ft 495 kts 15°
2026-05-04 15:06 -36.31354 -56.74532 29561 ft 489 kts 15°
2026-05-04 15:06 -36.28218 -56.72979 29032 ft 481 kts 14°
2026-05-04 15:07 -36.22078 -56.69945 27999 ft 468 kts 14°
2026-05-04 15:07 -36.19066 -56.68460 27484 ft 462 kts 14°
2026-05-04 15:07 -36.16100 -56.66999 26984 ft 457 kts 14°
2026-05-04 15:07 -36.13163 -56.65554 26477 ft 452 kts 14°
2026-05-04 15:08 -36.10260 -56.64126 25981 ft 447 kts 14°
2026-05-04 15:08 -36.07379 -56.62710 25485 ft 442 kts 14°
2026-05-04 15:08 -36.04532 -56.61313 24992 ft 438 kts 14°
2026-05-04 15:08 -36.01709 -56.59928 24490 ft 435 kts 14°
2026-05-04 15:09 -35.98905 -56.58553 24000 ft 431 kts 14°
2026-05-04 15:09 -35.96119 -56.57189 23472 ft 429 kts 14°
2026-05-04 15:09 -35.93359 -56.55837 22976 ft 424 kts 14°
2026-05-04 15:10 -35.87949 -56.53190 22011 ft 413 kts 14°
2026-05-04 15:10 -35.85290 -56.51890 21535 ft 409 kts 14°
2026-05-04 15:10 -35.80092 -56.49354 20606 ft 400 kts 14°
2026-05-04 15:11 -35.77515 -56.48099 20139 ft 396 kts 14°
2026-05-04 15:11 -35.74925 -56.46837 19665 ft 393 kts 14°
2026-05-04 15:11 -35.72426 -56.45621 19210 ft 390 kts 14°
2026-05-04 15:11 -35.69910 -56.44398 18750 ft 387 kts 14°
2026-05-04 15:12 -35.67416 -56.43185 18283 ft 384 kts 14°
2026-05-04 15:12 -35.64939 -56.41982 17789 ft 381 kts 14°
2026-05-04 15:12 -35.62491 -56.40792 17342 ft 376 kts 15°
2026-05-04 15:12 -35.60065 -56.39615 16892 ft 372 kts 15°
2026-05-04 15:13 -35.57667 -56.38452 16440 ft 368 kts 15°
2026-05-04 15:13 -35.55285 -56.37298 15997 ft 365 kts 15°
2026-05-04 15:13 -35.52932 -56.36159 15561 ft 362 kts 15°
2026-05-04 15:13 -35.50601 -56.35031 15124 ft 359 kts 15°
2026-05-04 15:14 -35.48284 -56.33911 14692 ft 356 kts 15°
2026-05-04 15:14 -35.45992 -56.32804 14263 ft 353 kts 15°
2026-05-04 15:14 -35.43716 -56.31704 13838 ft 351 kts 15°
2026-05-04 15:14 -35.41449 -56.30611 13375 ft 348 kts 15°
2026-05-04 15:15 -35.39210 -56.29531 12951 ft 344 kts 15°
2026-05-04 15:15 -35.36998 -56.28465 12546 ft 340 kts 16°
2026-05-04 15:15 -35.34807 -56.27410 12135 ft 336 kts 16°
2026-05-04 15:16 -35.30456 -56.25325 11313 ft 355 kts 16°
2026-05-04 15:16 -35.28038 -56.24429 10865 ft 369 kts 11°
2026-05-04 15:16 -35.23154 -56.22772 10551 ft 353 kts 12°
2026-05-04 15:17 -35.20838 -56.21976 10424 ft 339 kts 12°
2026-05-04 15:17 -35.16462 -56.20637 10179 ft 310 kts
2026-05-04 15:17 -35.14399 -56.20109 10068 ft 297 kts
2026-05-04 15:18 -35.12436 -56.19607 9942 ft 289 kts
2026-05-04 15:18 -35.10452 -56.19107 9856 ft 291 kts
2026-05-04 15:18 -35.08470 -56.18608 9601 ft 292 kts
2026-05-04 15:19 -35.04460 -56.17828 8684 ft 290 kts
2026-05-04 15:19 -35.03129 -56.17698 8385 ft 290 kts
2026-05-04 15:19 -34.99118 -56.17441 7458 ft 288 kts 358°
2026-05-04 15:20 -34.97109 -56.17336 6970 ft 289 kts 358°
2026-05-04 15:20 -34.95090 -56.17232 6494 ft 289 kts 358°
2026-05-04 15:20 -34.93076 -56.17133 5989 ft 289 kts 358°
2026-05-04 15:20 -34.91062 -56.17032 5496 ft 291 kts 358°
2026-05-04 15:21 -34.89033 -56.16937 4999 ft 292 kts 358°
2026-05-04 15:21 -34.87009 -56.16847 4499 ft 292 kts 358°
2026-05-04 15:21 -34.83031 -56.16672 4000 ft 274 kts 358°
2026-05-04 15:22 -34.81183 -56.16588 3990 ft 258 kts 358°
2026-05-04 15:22 -34.79436 -56.16497 3990 ft 243 kts 358°
2026-05-04 15:22 -34.76245 -56.16313 3888 ft 220 kts 358°
2026-05-04 15:23 -34.74751 -56.16208 3797 ft 209 kts 358°
2026-05-04 15:23 -34.73317 -56.16153 3719 ft 198 kts 355°
2026-05-04 15:23 -34.71988 -56.16143 3672 ft 186 kts 355°
2026-05-04 15:23 -34.70750 -56.16126 3599 ft 171 kts 355°
2026-05-04 15:24 -34.68525 -56.16072 3419 ft 149 kts 355°
2026-05-04 15:24 -34.66497 -56.15999 3073 ft 145 kts 358°
2026-05-04 15:25 -34.65599 -56.15447 2949 ft 155 kts 50°
2026-05-04 15:25 -34.65318 -56.14108 3211 ft 174 kts 87°
2026-05-04 15:25 -34.65356 -56.12614 2985 ft 178 kts 91°
2026-05-04 15:26 -34.65457 -56.09726 3004 ft 171 kts 88°
2026-05-04 15:26 -34.65474 -56.08288 3003 ft 170 kts 88°
2026-05-04 15:26 -34.65497 -56.05404 2995 ft 173 kts 96°
2026-05-04 15:27 -34.65970 -56.04098 3005 ft 172 kts 134°
2026-05-04 15:27 -34.68077 -56.03187 2863 ft 165 kts 187°
2026-05-04 15:28 -34.70318 -56.03244 2407 ft 156 kts 187°
2026-05-04 15:28 -34.71392 -56.03232 2196 ft 154 kts 187°
2026-05-04 15:28 -34.73549 -56.03207 1777 ft 156 kts 187°
2026-05-04 15:29 -34.74629 -56.03196 1561 ft 155 kts 187°
2026-05-04 15:30 -34.78691 -56.03141 784 ft 143 kts 183°
2026-05-04 15:30 -34.81653 -56.03108 218 ft 143 kts 183°
2026-05-04 15:31 -34.83592 -56.03094 67 ft 112 kts 177°
2026-05-04 15:31 -34.83987 -56.03068 70 ft 26 kts 158°
2026-05-04 15:32 -34.84015 -56.02924 72 ft 11 kts 89°
2026-05-04 15:32 -34.84034 -56.02718 71 ft 10 kts 144°
2026-05-04 15:33 -34.84053 -56.02721 71 ft 0 kts 217°